Theta_e
330 330 332 333 333 332 333 332 331 331 331 330 329 329 329 327 323 320 320 323 325 324 320 315 314 315 315 314 312 310 309 307 306 306 307 306 312 325 329 330 331 329 319 309 307 307 306 309 315 319 320 322 323 322 321 319 320 318 311 309 309 308 309 309 310 315 323 329 332 332 332 332 331 330 331 332 332 331 330 330 329 329 331 331 332
331 330 332 333 332 332 332 332 331 331 331 330 328 328 329 327 323 320 322 325 323 320 316 315 315 316 316 316 315 312 309 308 307 306 307 311 320 328 328 329 329 324 316 308 306 306 306 314 322 323 323 323 322 323 324 319 317 316 313 311 310 308 308 309 311 313 319 327 331 331 330 330 328 325 324 323 325 326 328 328 325 325 327 328 328
332 331 331 333 332 331 331 331 331 330 330 328 326 326 327 326 322 319 323 325 320 317 317 317 318 317 317 317 316 315 311 309 307 307 314 322 327 329 327 328 325 319 313 306 305 305 308 318 322 321 321 321 319 320 321 318 318 315 312 312 309 308 308 309 312 315 319 323 326 325 323 321 320 316 313 312 313 317 322 324 324 325 324 323 323
333 332 331 333 331 330 330 330 329 328 327 326 325 325 325 323 320 319 323 324 318 317 318 319 319 319 319 318 318 317 314 311 310 313 321 326 327 328 329 329 324 315 308 305 306 306 311 319 320 317 316 316 315 315 316 316 321 317 312 312 309 308 309 310 311 313 315 316 316 315 315 315 318 317 312 309 307 309 314 318 320 323 321 319 317
333 333 331 332 331 330 329 328 326 325 325 324 324 323 323 322 320 319 322 323 319 319 319 319 320 320 320 320 319 318 316 313 313 318 325 328 328 329 329 330 325 312 306 306 307 307 311 316 315 313 312 314 315 315 315 317 321 319 314 311 310 310 311 311 312 312 312 313 313 313 315 318 321 322 319 315 308 306 307 309 313 315 315 316 316
333 333 331 331 331 330 328 327 325 324 324 324 324 324 324 323 321 320 322 323 322 322 321 321 322 323 323 322 321 319 317 315 316 319 326 330 330 331 330 330 325 311 305 306 307 308 311 313 313 313 314 315 316 317 319 320 320 318 316 313 311 312 312 313 314 315 316 316 317 317 318 320 322 323 323 322 317 314 313 314 316 316 317 319 320
333 333 332 331 331 330 328 326 324 324 324 324 324 324 325 324 321 320 323 324 324 324 323 324 324 325 324 324 323 321 317 315 316 317 325 331 329 331 330 329 324 311 305 307 307 307 309 311 312 313 315 317 318 320 321 319 316 317 319 318 316 315 316 317 318 319 320 321 322 322 322 323 323 323 324 324 324 322 321 322 322 322 322 323 323
333 334 333 332 332 330 328 327 325 325 324 324 323 323 324 322 322 321 323 325 325 326 325 325 326 326 325 325 325 323 318 314 314 314 321 328 328 330 330 328 320 309 306 307 306 307 308 309 311 312 314 318 322 323 323 319 317 319 321 321 321 321 321 321 322 322 322 323 324 324 324 325 325 325 324 323 324 324 324 324 324 324 323 324 324
333 333 333 333 332 330 328 328 327 326 325 324 323 323 322 321 321 321 322 325 326 326 326 326 326 326 326 324 324 323 319 313 312 311 314 319 323 325 325 322 313 307 306 306 306 308 309 311 313 314 315 317 321 322 321 321 321 322 322 323 323 323 323 323 323 323 323 324 324 325 325 325 325 325 325 323 323 323 323 323 324 324 323 324 324
335 332 334 334 333 331 329 329 328 327 326 324 323 322 322 321 320 320 321 324 326 327 326 325 325 327 327 324 322 322 319 314 311 308 307 310 314 316 316 312 307 306 307 309 311 311 312 313 314 315 316 316 318 320 319 320 322 322 323 324 324 324 324 324 324 324 324 324 325 325 325 325 325 325 326 324 323 323 323 323 323 323 323 324 324
335 334 334 334 333 331 330 330 329 327 326 324 324 323 322 321 320 322 322 324 326 326 326 324 324 325 326 325 322 320 319 314 310 307 306 306 308 309 308 306 306 309 312 314 314 314 314 314 315 315 316 317 317 318 318 319 320 322 324 324 325 325 325 325 325 325 325 325 326 326 326 326 326 326 326 324 323 323 323 323 324 324 324 323 324
336 335 335 335 334 332 331 330 330 328 327 325 324 323 322 321 321 324 324 324 325 324 324 324 322 322 325 325 322 320 319 314 310 308 306 306 306 306 306 307 311 315 317 317 316 315 314 314 314 315 316 316 315 316 318 319 320 322 323 324 324 326 326 326 325 325 325 326 326 326 326 326 326 326 325 324 324 324 323 324 325 324 323 323 324
337 335 335 336 335 333 332 331 331 330 328 327 325 324 323 321 322 325 326 323 323 323 323 323 321 321 324 325 322 320 319 315 313 312 310 309 308 309 311 314 317 318 319 318 318 316 315 314 313 314 315 315 315 316 318 319 320 321 323 324 324 325 326 325 325 325 325 325 326 326 326 326 326 325 324 324 324 324 324 324 325 323 323 324 324
337 336 336 336 336 333 333 332 332 332 329 328 326 325 323 322 323 325 325 323 322 323 323 323 322 321 323 325 323 320 320 317 315 316 315 314 314 315 317 318 319 319 319 319 318 317 315 314 313 313 314 315 315 316 317 319 320 321 322 324 324 325 325 325 325 325 325 325 325 326 326 326 325 325 325 324 323 322 322 322 322 322 322 322 323
337 336 336 336 336 334 333 333 333 334 331 329 327 326 324 323 324 325 325 323 322 323 324 323 322 321 321 324 322 320 320 318 316 318 319 318 318 319 320 320 320 320 320 319 319 317 316 314 313 312 313 314 315 315 316 318 320 321 322 323 324 325 324 324 325 324 325 325 325 325 325 325 325 325 325 324 323 322 322 321 320 320 319 319 320
336 337 336 336 336 335 334 333 333 334 333 331 329 327 326 324 325 326 326 323 322 323 324 323 323 322 320 320 320 319 319 320 318 318 320 320 319 320 320 321 321 321 321 320 319 318 317 315 314 312 312 312 313 313 314 315 316 318 321 323 324 324 324 324 324 324 324 324 324 324 324 324 324 324 324 323 322 322 321 321 319 318 317 316 316
336 336 336 336 336 336 334 334 334 334 334 333 332 329 326 325 325 327 327 325 324 324 324 324 324 323 322 319 318 318 319 320 319 319 321 321 320 320 321 322 322 322 322 321 320 319 318 316 315 314 313 312 311 312 313 313 314 315 317 320 323 323 323 323 323 323 323 323 323 323 323 323 322 322 322 322 321 321 320 319 318 318 316 315 314
335 336 336 335 335 336 335 334 334 334 335 334 334 331 328 326 326 327 327 327 326 325 324 325 325 324 324 320 317 317 318 320 320 320 321 321 321 322 322 323 323 323 323 322 321 319 318 317 316 315 314 312 311 311 313 314 313 313 314 316 319 321 322 322 322 322 321 321 321 321 322 321 322 321 320 320 320 320 319 318 319 316 312 311 311
334 334 336 335 334 335 336 335 334 335 335 334 335 333 329 327 326 327 328 327 326 326 324 325 325 324 324 320 318 317 318 319 320 321 321 321 321 322 323 323 323 323 323 323 322 320 319 318 316 315 314 312 311 311 313 313 313 313 313 314 316 318 318 318 319 319 318 317 318 320 321 321 321 321 320 321 320 319 318 317 316 309 303 304 304
331 331 333 334 334 334 335 335 335 335 335 334 334 334 331 328 327 327 328 328 327 326 324 324 325 325 324 321 320 318 318 318 319 321 321 321 321 321 322 322 323 323 323 323 322 321 319 318 316 315 315 312 310 310 311 312 312 312 314 314 315 317 317 318 319 318 317 317 318 320 321 321 321 321 321 320 319 318 317 315 312 306 302 302 302
328 328 329 332 334 333 334 334 335 335 335 335 334 335 333 330 329 328 329 328 328 327 325 324 324 325 324 322 322 320 318 317 318 321 322 322 321 321 321 322 322 322 323 322 322 321 319 318 317 316 315 312 310 310 311 311 312 312 314 316 317 318 319 319 320 320 319 320 320 321 321 321 322 322 321 319 317 315 312 310 308 305 304 302 301
324 324 325 328 330 330 332 334 335 335 335 335 334 334 334 332 330 329 329 329 329 328 326 325 324 325 325 324 323 323 320 317 317 320 322 322 322 321 321 321 322 322 323 322 321 321 319 318 318 317 315 312 310 310 310 310 311 312 315 318 318 318 319 319 320 320 320 321 321 321 322 322 322 321 319 317 314 311 309 309 306 305 306 304 302
320 320 319 322 325 326 329 331 333 334 335 335 335 334 334 334 332 330 330 329 329 329 327 326 325 326 326 325 324 325 323 318 318 319 321 322 323 322 322 322 322 322 323 322 321 321 320 319 318 317 315 313 310 310 309 310 311 313 317 319 318 318 318 319 319 320 320 321 321 322 321 321 320 319 318 316 314 312 310 308 305 304 306 306 305
317 317 317 317 320 321 323 326 329 332 334 334 335 335 334 334 333 332 331 331 330 329 328 326 326 326 326 326 325 326 325 321 320 319 320 321 322 323 323 323 322 322 323 323 322 321 321 320 319 317 315 313 311 310 309 310 310 312 317 319 318 317 318 319 319 319 320 320 321 320 319 319 318 318 317 315 313 312 308 305 304 303 304 305 304
315 316 317 317 317 317 319 321 324 328 330 332 333 334 334 333 333 333 332 332 331 330 329 327 326 326 327 327 326 327 327 325 322 322 322 321 322 323 324 324 323 323 323 323 323 322 322 320 319 317 315 313 311 310 309 310 310 311 315 318 318 317 318 318 319 318 319 320 320 319 318 317 316 316 316 313 310 308 305 303 303 303 304 304 305
316 316 315 315 316 315 316 318 320 322 325 327 330 332 332 332 332 333 333 333 332 331 330 329 327 327 327 327 327 327 327 327 325 325 325 324 324 322 323 324 324 324 323 323 323 323 322 321 320 317 314 312 311 310 309 310 309 310 314 317 317 317 317 318 318 318 318 319 319 319 318 316 316 315 315 313 308 306 306 305 303 304 305 305 306
315 315 314 315 315 314 315 316 318 319 321 324 328 330 331 331 330 332 333 333 333 333 333 331 329 328 328 328 328 328 327 327 327 327 327 327 326 325 323 324 325 325 323 323 323 323 323 322 321 319 315 312 310 310 309 310 309 309 312 316 317 317 318 317 317 317 317 318 318 318 317 316 316 316 314 310 306 305 307 307 305 305 306 306 306
314 314 314 314 314 314 314 315 316 317 318 322 326 327 329 331 330 331 332 333 333 333 334 333 332 330 329 330 329 328 327 328 328 328 327 327 327 326 325 324 325 325 324 323 323 324 323 323 323 320 316 313 310 310 309 309 309 309 311 314 317 317 318 317 316 316 316 316 317 317 316 315 315 315 313 310 308 307 307 307 305 306 307 307 307
314 315 314 314 314 314 314 314 314 315 315 318 324 325 326 329 330 330 332 332 333 333 333 333 333 332 331 331 329 328 327 327 328 328 327 327 327 327 326 325 325 325 325 324 323 324 323 323 323 320 317 313 310 309 309 309 309 309 309 312 316 317 318 317 316 315 315 315 315 315 315 314 313 312 312 311 310 309 308 308 306 306 306 307 307
314 314 314 314 314 314 314 314 314 314 314 315 320 322 323 327 328 329 331 332 332 332 332 333 333 332 331 331 330 328 328 328 328 327 327 328 328 327 327 327 326 326 325 324 323 324 324 324 323 320 317 315 311 309 309 308 309 309 308 309 313 316 317 317 316 315 315 315 314 314 314 312 310 309 309 309 310 309 309 309 308 308 306 305 305
314 314 314 314 314 314 314 314 314 314 315 314 316 318 319 323 325 327 329 329 330 331 332 332 332 332 331 331 330 329 329 328 328 328 328 328 328 327 328 327 327 327 326 325 324 323 324 324 323 321 318 315 311 309 309 309 308 308 308 308 311 315 317 317 316 316 315 315 314 313 313 311 307 303 303 305 308 308 309 309 308 308 307 306 304
315 315 315 315 314 314 314 315 315 315 315 314 314 315 316 318 321 323 325 327 329 330 331 332 332 332 332 331 330 330 330 329 329 329 328 328 327 327 327 327 327 327 326 326 325 324 323 324 324 321 317 315 312 309 309 309 308 308 308 308 309 313 316 317 316 316 316 315 313 312 311 307 302 298 298 300 303 304 306 308 308 307 307 306 305
315 315 315 315 315 315 315 315 316 316 315 314 314 314 314 316 317 320 321 324 328 329 330 332 332 333 332 331 331 331 330 329 329 329 329 328 328 327 326 326 327 327 327 326 325 325 324 323 324 322 318 315 311 310 309 308 308 308 308 308 308 312 315 316 316 316 316 314 314 311 305 300 296 296 297 297 298 299 301 304 305 306 306 306 305
316 315 315 315 315 315 316 316 317 316 316 315 314 314 314 315 316 318 319 322 325 326 328 331 333 333 332 331 332 332 331 330 330 330 329 328 327 327 326 326 327 327 327 326 325 326 325 323 324 323 320 316 311 309 309 308 308 308 308 308 308 310 313 315 316 315 315 314 310 304 298 296 296 296 296 296 296 296 296 298 299 301 302 303 304
316 315 316 316 316 316 316 316 317 317 316 315 314 314 314 314 315 317 318 319 321 323 325 328 331 331 331 331 332 332 332 331 330 330 329 328 327 327 326 326 326 327 327 326 324 325 325 323 324 324 322 318 312 309 309 308 308 307 308 308 308 309 310 312 314 313 311 307 302 297 295 296 296 296 296 296 296 295 295 295 295 296 297 299 302
317 316 316 316 316 316 316 316 317 317 316 316 315 314 314 314 315 316 317 318 319 321 322 325 328 329 329 330 331 332 331 331 330 330 329 328 327 326 326 325 325 327 327 326 325 325 325 323 323 323 322 320 313 309 308 307 307 307 307 308 308 307 305 306 306 304 302 298 296 295 295 296 296 296 296 295 295 295 295 294 294 294 295 296 299
317 317 317 316 316 316 316 316 316 316 316 316 315 314 314 314 315 316 317 318 319 320 322 324 327 329 330 329 330 330 330 331 331 330 329 328 327 326 327 326 324 326 327 326 326 325 325 324 323 322 321 319 314 309 308 307 307 307 307 307 306 302 299 298 298 297 296 295 295 295 295 296 296 295 295 295 295 295 294 294 294 293 293 293 294
317 317 317 317 317 317 317 317 316 317 316 316 315 314 314 314 315 315 317 318 319 320 321 323 326 328 329 329 328 329 331 332 331 331 330 329 328 326 327 327 324 326 327 326 326 326 325 324 323 322 319 318 316 310 308 307 307 306 306 305 302 298 296 295 296 295 295 295 295 295 295 296 295 295 295 295 295 295 294 294 293 293 292 292 292
317 317 317 318 318 318 318 317 317 317 316 316 315 315 314 314 314 315 316 316 318 319 320 321 323 324 326 326 326 328 329 329 330 331 330 329 328 325 325 326 324 326 327 326 326 325 325 324 323 322 319 317 317 313 308 307 306 306 305 303 298 295 295 295 295 295 295 295 295 295 295 295 295 295 295 295 295 294 294 293 293 292 292 292 291
317 317 317 317 318 318 318 318 317 317 317 316 315 315 314 314 314 314 314 314 315 317 318 318 318 320 321 322 324 326 326 328 330 332 330 329 328 325 325 324 323 326 327 325 326 326 325 325 323 323 321 318 316 312 308 307 306 306 303 299 296 295 294 295 295 295 295 295 295 294 295 295 295 295 295 295 294 294 293 293 292 292 292 291 291
317 317 317 317 317 317 317 317 316 316 317 316 315 314 314 314 314 314 313 313 313 315 316 316 316 317 317 319 321 322 327 332 332 332 331 329 328 326 326 324 322 326 328 325 325 326 325 325 324 322 320 319 316 311 307 307 306 304 300 295 294 294 294 294 294 294 295 295 294 294 294 294 295 295 294 294 294 294 293 292 292 291 291 291 291
318 317 317 317 317 317 316 316 315 316 316 316 315 314 314 314 314 314 313 312 313 313 314 315 316 316 316 318 319 320 327 333 332 332 331 329 329 329 328 325 324 327 327 325 325 325 325 324 324 322 319 317 317 314 309 308 307 304 300 296 294 293 293 293 293 294 294 294 294 293 293 294 294 294 294 294 293 293 292 292 292 291 291 291 291
318 317 317 317 317 317 317 316 316 316 316 316 315 314 314 314 313 313 313 312 312 313 314 315 316 317 316 317 319 320 325 330 330 330 331 330 328 329 328 325 326 328 326 325 325 325 325 324 323 323 320 315 314 314 310 309 308 304 299 296 295 294 293 293 293 294 294 294 293 293 293 293 294 294 293 293 293 293 292 292 291 291 291 291 291
318 318 318 318 317 317 317 316 316 316 316 316 316 315 315 314 314 313 312 312 312 313 314 315 316 316 316 316 318 319 323 329 331 330 330 329 327 328 327 325 325 327 326 325 325 325 325 324 323 322 322 318 314 313 310 307 309 306 299 296 294 293 293 293 294 293 293 293 292 292 293 293 293 293 293 293 292 292 292 292 292 292 292 291 290
318 318 318 318 318 318 317 317 316 316 316 316 316 316 315 314 314 313 312 312 312 312 313 314 314 315 315 315 315 316 318 323 328 329 328 327 327 328 328 326 325 325 325 325 325 325 324 324 323 322 322 321 318 315 311 307 307 305 302 299 295 293 294 295 294 293 293 292 292 292 292 293 293 293 293 293 292 292 292 292 292 291 291 291 290
319 318 319 318 318 318 317 317 317 316 316 316 316 315 315 314 313 313 312 312 312 312 312 312 313 313 314 314 314 313 314 318 323 327 329 328 327 326 325 325 325 324 324 325 325 325 324 323 323 322 321 320 319 316 313 310 306 301 300 300 299 298 298 298 295 293 293 292 292 292 292 292 293 293 293 292 292 292 292 291 291 291 291 290 290
319 318 318 318 318 318 318 317 317 316 316 316 315 315 315 314 313 313 312 312 312 312 311 312 312 313 313 314 313 313 315 318 320 324 326 324 323 322 322 322 323 324 325 326 326 325 324 323 322 322 321 320 319 317 315 312 305 301 298 298 299 299 300 299 297 296 295 293 292 292 292 293 293 293 293 292 292 292 291 291 291 291 291 290 290
318 318 318 318 318 317 317 317 316 316 316 316 315 315 314 314 313 313 313 312 312 312 311 311 312 312 313 313 312 313 315 316 316 318 320 321 322 324 324 324 325 327 327 327 326 325 323 323 321 321 321 320 319 319 317 313 308 306 302 297 297 298 299 300 300 299 299 297 295 293 293 293 293 293 293 292 292 291 291 291 291 291 291 290 290
318 318 318 317 317 317 317 316 316 316 316 315 315 315 314 314 314 313 313 313 312 312 311 311 311 311 311 312 312 313 315 316 316 318 322 323 325 326 326 326 326 326 327 326 325 324 323 323 322 321 320 319 319 319 317 314 311 310 305 300 298 298 299 300 299 298 299 299 297 296 296 295 295 294 294 293 292 291 291 291 291 291 291 290 290
317 317 317 317 317 317 317 316 316 316 316 315 315 315 314 314 314 313 313 313 312 312 311 311 310 310 311 311 312 313 315 317 317 319 323 325 325 325 324 324 324 324 325 326 325 324 324 323 322 321 320 319 318 318 318 315 311 309 306 303 301 298 299 300 299 298 298 299 299 299 298 298 298 297 295 294 293 292 291 291 291 291 290 290 290
317 317 317 317 317 317 316 316 316 316 315 315 315 315 314 314 314 314 313 313 313 312 312 311 311 310 310 311 312 313 315 316 317 318 321 324 324 323 322 322 323 323 324 325 324 323 322 322 321 321 320 319 318 317 318 316 313 308 304 303 301 300 301 301 302 302 301 300 300 300 300 299 298 297 295 294 293 292 291 291 291 290 290 290 290
Wind_Speed
17 16 16 15 14 14 13 12 11 11 11 9 8 8 8 10 11 12 12 12 12 12 13 14 15 16 17 17 17 16 17 16 16 16 17 19 22 24 21 18 16 11 10 12 14 14 15 17 18 18 18 18 18 18 18 17 17 16 18 18 16 15 15 13 11 12 14 15 15 15 15 16 15 14 16 17 17 17 19 19 18 18 19 19 18
19 17 16 16 14 14 13 12 11 11 10 8 7 7 8 10 10 12 12 12 12 12 13 14 15 16 17 17 17 16 16 16 16 17 19 22 23 22 19 16 13 9 9 12 14 15 16 18 18 18 19 19 19 20 19 18 17 18 19 19 18 18 18 17 14 13 14 15 15 13 13 13 14 13 14 15 15 16 18 19 18 16 15 16 16
19 18 16 16 14 14 14 12 11 10 9 8 7 7 8 9 10 11 11 11 12 13 14 15 16 16 17 17 17 16 16 16 16 19 22 23 22 20 17 14 9 8 10 13 15 16 17 18 18 18 19 19 19 19 19 18 17 18 20 20 20 21 21 21 19 17 16 16 15 14 13 14 15 16 15 15 15 15 17 18 18 17 15 14 15
18 18 17 15 14 14 14 13 11 10 9 7 7 7 7 8 9 10 10 11 13 14 15 15 16 17 17 17 17 16 15 15 15 20 23 21 20 18 17 14 8 9 11 13 16 16 17 18 18 19 19 18 18 18 18 19 18 19 20 21 22 24 24 24 23 21 20 19 18 17 18 19 20 20 18 17 17 16 15 16 17 17 16 15 16
17 17 16 15 15 13 13 12 11 10 9 8 6 6 6 7 8 9 10 11 13 14 14 15 16 16 16 16 16 16 15 14 14 19 22 19 19 17 17 14 8 10 12 14 16 17 18 18 18 18 18 18 19 19 19 20 20 20 21 21 23 25 25 25 25 25 25 24 24 23 23 23 23 22 21 20 19 18 18 17 17 16 16 18 19
17 16 16 15 14 13 12 11 11 10 8 7 6 6 6 7 8 9 10 11 12 13 13 14 15 16 16 15 15 15 14 13 13 17 21 18 18 17 15 13 9 12 14 15 16 17 18 18 18 18 18 18 19 19 19 19 20 21 22 22 23 24 24 24 25 25 26 26 27 27 26 25 24 23 22 23 23 23 23 22 22 21 20 22 23
16 16 16 15 14 13 11 11 11 10 9 7 7 6 6 6 8 9 10 11 12 13 13 13 14 15 15 15 15 14 14 13 12 15 20 19 17 16 14 12 11 13 15 16 17 18 18 18 18 18 18 18 19 19 18 19 20 21 22 22 22 23 23 24 24 25 26 27 28 28 28 27 27 25 23 24 24 25 25 25 25 25 25 26 27
16 15 15 15 14 13 11 11 10 10 10 8 7 7 6 6 7 9 10 11 12 12 12 12 13 14 14 14 13 14 14 13 13 14 17 17 17 16 14 13 13 14 16 17 17 18 18 17 17 17 18 18 19 18 17 19 20 20 21 22 22 24 24 24 25 26 27 28 29 28 29 29 28 28 26 25 24 23 24 24 25 25 26 28 28
16 15 15 14 13 13 12 11 10 11 10 9 8 7 7 6 7 8 9 11 11 12 11 11 11 12 13 13 12 13 13 13 13 13 13 13 15 14 13 14 14 15 17 18 18 19 18 17 17 17 16 17 17 17 16 18 21 20 21 22 23 24 24 25 26 27 28 28 29 28 28 28 28 28 26 26 25 25 25 25 25 25 26 27 27
16 15 14 14 14 13 12 11 10 10 10 9 8 8 8 7 7 8 9 10 11 10 10 9 9 10 11 11 12 12 12 12 12 12 12 12 13 13 14 15 16 17 18 19 19 18 18 17 16 16 15 15 15 15 15 17 20 20 20 21 22 23 24 25 26 27 27 28 28 28 27 27 27 26 25 25 25 26 26 26 25 25 25 25 26
15 15 14 14 14 13 13 11 10 10 10 9 8 8 8 7 7 8 9 10 10 9 9 9 8 8 9 10 11 11 11 12 13 13 13 14 15 16 18 19 19 19 19 19 18 18 17 17 15 15 14 14 14 13 14 16 18 19 19 21 22 22 24 25 26 27 26 27 27 27 26 26 26 25 24 24 24 25 25 25 25 25 25 25 25
15 15 14 14 14 13 13 11 10 10 10 9 8 8 8 8 8 8 8 9 9 8 8 8 8 8 8 9 10 11 11 12 13 14 14 16 18 20 21 20 19 19 19 19 18 17 17 16 15 15 14 14 14 14 15 15 17 18 18 20 21 22 23 24 25 26 26 26 26 25 25 24 24 24 24 24 23 24 24 25 25 25 25 24 24
15 15 14 14 13 13 13 12 11 10 10 9 9 8 8 8 8 8 7 7 7 8 8 8 8 8 8 8 9 11 11 12 13 15 15 17 19 20 20 19 19 19 19 18 17 17 16 15 15 15 15 14 14 15 16 15 16 16 17 18 20 21 23 23 25 25 25 26 25 24 24 23 24 23 22 22 22 23 23 24 24 24 24 24 24
16 15 14 14 14 13 13 13 11 10 10 9 9 8 8 8 9 9 7 6 6 7 8 7 7 8 8 8 9 10 11 12 13 15 16 17 18 19 19 19 19 19 18 17 16 16 15 15 15 15 15 14 14 15 15 15 15 15 16 17 19 20 22 24 25 24 24 25 24 23 23 23 22 22 21 21 21 21 20 20 20 21 22 22 22
15 15 15 14 14 14 14 13 12 11 11 10 10 9 8 9 9 10 8 7 6 6 7 7 7 7 7 8 8 9 11 11 13 14 15 16 17 17 18 18 18 18 18 17 15 15 15 14 14 14 14 14 14 14 14 15 14 14 15 16 18 18 20 23 24 24 24 23 23 22 22 21 20 20 20 21 20 19 19 18 17 17 17 17 18
15 15 15 15 15 15 15 15 14 12 11 11 11 10 9 9 9 10 9 7 7 6 6 6 6 6 7 7 7 8 10 11 12 14 14 15 15 16 17 17 17 17 17 16 15 14 14 13 13 13 13 13 13 13 13 14 14 13 13 15 16 17 18 21 23 23 22 22 22 21 21 20 19 19 19 19 19 18 18 17 15 14 13 13 13
16 16 16 15 15 16 16 16 15 13 13 12 12 12 10 10 10 10 9 8 7 7 7 7 6 6 6 6 6 7 9 11 12 13 13 14 15 16 16 15 15 15 15 14 14 13 13 13 12 12 12 12 12 13 13 14 14 13 13 13 14 15 16 18 20 21 20 20 21 20 20 18 17 16 16 15 16 16 16 15 15 12 10 10 10
18 18 17 16 16 17 17 17 16 15 14 14 13 13 12 11 11 10 10 8 8 7 7 7 6 6 5 6 6 6 9 11 12 12 12 13 14 14 14 13 13 13 13 13 12 12 12 12 12 11 11 11 12 13 14 14 14 13 12 12 13 14 15 16 17 18 17 18 19 19 17 15 15 15 13 13 14 15 15 15 15 14 12 11 10
20 20 18 17 17 17 18 17 17 16 15 15 13 14 13 12 12 11 10 9 8 8 7 7 6 5 5 5 6 6 9 10 11 11 11 11 12 12 12 11 11 11 11 11 11 11 12 12 11 10 10 10 11 12 13 14 13 13 13 13 14 15 16 16 17 18 17 17 18 18 16 13 13 13 14 16 16 16 15 15 15 14 15 16 16
21 22 21 19 19 18 19 18 18 17 16 15 14 15 14 14 13 12 11 9 9 9 8 7 6 5 5 5 5 6 8 9 11 11 11 10 10 10 10 10 9 9 10 10 10 11 11 11 11 10 9 9 10 11 12 13 13 13 13 14 16 17 18 20 21 21 21 20 19 19 17 14 14 16 19 19 18 17 16 15 12 12 15 18 19
21 22 23 22 20 19 20 19 19 18 17 17 16 16 15 16 15 13 12 11 10 10 10 8 7 6 5 6 5 6 7 8 10 11 11 10 10 9 9 8 8 8 9 9 10 10 10 10 10 10 9 9 9 10 11 12 13 14 14 16 18 19 21 22 22 22 23 22 21 19 18 18 20 20 19 18 17 16 15 14 13 14 16 17 17
20 21 23 24 23 21 21 20 20 20 19 18 17 17 17 17 17 15 14 13 12 11 11 10 8 7 6 6 6 6 7 8 9 10 11 10 9 9 8 8 8 8 8 9 9 9 9 9 9 9 9 8 9 9 10 12 13 14 15 17 19 20 22 23 24 24 24 22 21 19 19 20 20 18 16 15 15 13 11 13 15 17 18 18 17
20 20 20 22 23 22 21 21 21 21 21 20 19 19 19 19 18 17 16 15 14 13 12 11 9 8 7 7 7 8 8 8 9 10 10 10 9 9 9 8 8 8 7 8 8 8 8 9 9 8 8 8 8 8 9 11 13 15 16 18 19 20 21 23 25 25 24 22 20 18 17 17 16 16 14 13 11 8 8 12 15 16 18 18 17
19 19 19 19 21 21 21 21 21 21 22 22 21 21 20 20 20 19 17 16 15 14 13 13 11 10 9 8 8 9 9 9 9 9 10 9 9 9 9 9 8 8 8 8 8 8 8 8 8 8 8 8 8 8 8 11 14 15 17 18 19 19 21 22 25 25 24 21 19 16 14 13 14 15 14 10 7 5 7 12 14 14 16 17 16
19 20 21 20 19 20 20 20 21 21 22 22 22 22 21 21 21 20 19 18 17 16 15 15 14 12 11 10 9 10 11 10 10 9 9 9 9 9 9 9 8 8 9 8 8 8 7 8 8 8 8 8 8 8 8 10 13 15 17 18 18 18 20 22 23 25 24 21 18 17 14 12 11 12 10 6 6 7 10 13 14 13 15 16 16
22 22 22 21 21 20 20 21 21 21 22 23 22 22 22 21 21 21 20 20 19 17 17 17 16 15 13 12 11 11 12 13 12 10 8 8 8 8 9 9 9 9 9 9 9 9 7 7 8 7 8 9 9 9 8 9 12 14 16 18 18 18 19 20 22 24 24 22 19 17 15 13 10 9 8 6 8 12 14 15 14 14 16 16 18
22 22 21 21 22 22 21 22 22 22 22 22 23 23 23 22 22 21 21 21 20 19 18 18 17 17 15 14 13 13 13 14 14 12 10 8 8 8 9 9 10 10 10 10 10 10 8 7 6 6 7 9 10 10 9 9 11 13 15 17 18 18 19 19 20 21 23 24 21 17 15 17 15 12 11 9 11 14 16 17 15 15 17 18 19
22 22 22 22 23 23 23 23 23 23 22 23 24 24 24 24 23 22 22 22 21 21 19 19 19 19 17 15 15 14 14 15 15 13 11 9 9 9 9 9 10 11 10 11 11 10 9 7 6 6 7 9 11 11 11 11 11 12 14 16 17 18 19 19 18 18 21 22 22 20 17 18 18 15 14 13 14 15 17 17 15 16 19 19 19
23 22 22 23 24 24 23 24 23 23 21 22 25 25 24 25 24 23 23 22 22 21 20 20 20 20 19 17 16 16 15 15 15 13 12 10 10 11 9 9 10 11 11 12 12 11 11 8 7 7 7 9 10 11 11 11 12 13 13 15 17 18 18 18 17 17 18 19 19 20 19 18 16 16 16 15 15 16 17 16 15 16 17 18 19
23 23 23 23 23 24 24 24 24 22 21 22 24 25 24 25 25 24 24 23 22 22 22 22 21 21 21 19 18 17 15 15 15 14 13 12 12 13 11 9 10 12 12 13 13 13 11 9 8 8 8 10 11 12 12 11 12 13 13 15 17 18 18 18 17 17 17 17 16 16 17 15 13 13 15 16 16 16 16 15 15 15 15 15 16
23 24 23 23 23 24 24 24 23 22 22 22 22 23 23 25 25 25 25 25 24 23 23 22 21 22 22 20 19 18 16 15 15 15 15 14 13 14 13 11 10 12 14 14 14 14 13 11 9 9 10 11 12 13 13 13 13 13 13 14 16 18 19 18 18 17 17 16 14 13 11 8 6 8 12 14 15 15 15 14 14 14 13 14 15
23 23 22 22 22 23 23 23 23 22 23 23 22 23 23 23 24 24 25 25 25 25 25 24 22 23 22 21 20 19 18 17 16 16 16 16 15 15 15 13 11 12 14 14 14 15 14 13 10 9 11 12 12 14 14 14 13 14 14 14 16 18 19 19 19 18 18 16 14 10 7 4 2 3 7 10 12 13 14 15 14 14 14 14 14
23 21 21 23 22 22 22 22 22 23 23 23 23 23 23 23 23 24 24 24 26 26 27 26 25 25 24 23 22 21 20 19 18 18 18 17 16 15 15 13 12 13 14 14 14 15 15 15 13 11 12 14 14 15 15 15 15 15 15 15 17 19 20 20 19 19 18 15 12 9 6 5 3 3 3 5 8 9 10 13 14 14 14 14 14
23 23 23 23 22 22 22 22 22 23 24 24 24 24 24 24 24 24 24 24 26 27 28 27 27 27 25 25 25 25 23 21 20 21 20 19 17 16 14 13 13 14 14 14 14 15 16 17 15 13 13 15 16 17 16 16 16 16 17 17 18 19 19 20 19 19 17 14 11 8 7 6 5 4 3 3 5 7 7 8 10 11 12 13 14
24 24 24 23 23 23 23 23 23 23 24 25 25 25 25 25 24 24 25 25 26 27 27 29 30 30 28 27 27 27 27 25 23 23 23 21 20 18 16 14 14 15 15 15 16 17 18 19 18 16 15 16 17 18 17 17 18 18 18 19 19 19 19 19 19 18 16 13 11 9 8 7 5 4 4 4 4 5 6 6 6 8 9 11 13
24 24 24 24 25 25 24 24 24 24 25 25 25 25 25 26 25 25 26 25 26 26 26 28 30 30 29 29 29 29 29 28 26 25 24 23 21 20 19 16 16 18 18 17 18 18 19 20 20 18 16 17 19 20 19 19 19 19 19 20 19 18 18 18 18 17 15 13 12 10 9 8 6 6 5 5 5 4 4 5 4 5 7 9 11
23 24 24 25 26 26 26 26 25 25 24 24 25 25 25 25 26 26 27 27 27 27 27 27 29 30 30 30 31 30 29 29 28 28 27 25 23 21 21 20 20 21 20 19 20 20 20 22 22 20 18 18 20 21 21 21 21 20 21 21 20 19 18 18 18 17 15 14 13 11 10 8 7 7 6 5 5 4 4 3 3 4 5 6 6
23 24 25 26 27 27 27 27 27 26 25 24 25 25 25 25 25 26 27 28 28 28 29 29 30 32 33 34 34 31 30 30 31 32 30 27 24 22 23 23 22 23 23 20 22 21 21 23 23 22 20 19 20 22 23 23 23 22 22 22 21 20 19 18 17 16 16 14 13 12 10 9 8 7 6 5 4 4 3 3 3 3 4 4 3
23 24 25 26 28 29 29 29 29 28 27 26 25 26 26 26 26 27 29 30 30 30 30 31 32 33 34 35 35 34 32 31 34 36 32 27 27 24 25 25 23 26 26 22 24 23 22 24 24 23 22 20 19 20 23 24 25 24 24 23 22 20 19 18 17 17 16 14 12 12 11 10 8 7 5 5 5 4 4 3 3 3 3 2 3
23 23 24 26 28 29 30 30 30 30 29 28 27 28 28 28 29 29 31 31 32 32 32 31 31 32 33 33 34 34 33 32 35 37 32 29 29 26 25 26 24 28 29 25 25 25 24 26 27 26 26 25 22 21 24 25 25 26 25 24 22 21 19 18 18 17 16 15 13 12 11 9 8 7 6 6 6 5 4 3 3 2 1 1 2
23 23 24 25 27 29 30 30 30 30 30 30 29 29 30 30 30 30 31 32 32 33 33 32 31 31 32 31 32 33 33 35 36 37 35 32 30 26 25 26 26 30 31 27 26 27 27 29 30 29 28 28 26 25 26 26 26 27 27 25 23 21 20 19 19 18 17 15 15 13 11 9 8 8 7 7 7 5 4 3 3 2 1 1 1
23 23 23 23 25 27 29 29 29 30 30 30 30 30 30 30 30 29 29 30 32 33 33 33 32 32 31 31 32 33 34 37 38 37 38 35 32 30 29 29 30 35 32 27 29 30 29 31 32 31 29 29 27 27 28 27 27 28 28 27 25 23 21 20 20 19 18 16 16 14 12 10 9 9 9 8 7 6 5 4 3 2 1 1 2
22 22 21 21 23 25 26 27 28 28 29 29 30 30 30 31 31 30 29 30 31 32 33 33 33 33 32 32 33 34 36 39 41 40 39 37 35 34 31 29 32 36 32 29 32 33 31 33 35 34 32 31 28 28 28 29 29 30 30 28 27 26 23 23 22 20 20 19 17 15 13 11 11 11 10 9 8 7 5 5 4 3 2 2 2
20 20 20 19 20 21 23 25 26 27 28 29 30 30 31 31 32 31 30 31 32 33 34 34 35 34 34 33 34 36 39 42 43 42 42 41 39 36 32 31 34 36 35 33 34 36 35 36 37 36 35 33 32 30 30 31 32 31 30 27 25 25 24 25 26 24 22 21 19 17 14 13 13 12 12 10 9 8 7 5 5 4 3 3 3
17 17 17 17 17 18 19 21 24 26 27 29 30 31 32 32 33 33 33 33 34 35 36 36 36 36 36 35 35 37 42 45 45 45 44 42 39 36 34 34 35 36 36 34 35 38 39 39 39 39 37 35 33 32 33 33 33 32 32 27 22 23 25 26 27 25 25 23 21 19 17 16 15 14 13 12 11 9 8 7 6 5 4 4 4
12 13 14 15 16 17 18 20 22 24 26 29 30 31 32 33 34 35 34 35 36 38 38 38 38 38 37 36 35 36 39 44 47 47 45 42 39 37 36 37 36 36 35 35 37 41 41 41 41 38 37 35 33 32 33 34 35 34 34 31 24 23 27 28 27 25 25 25 23 21 20 18 18 17 15 14 13 11 9 8 7 6 6 6 5
8 10 12 13 14 15 17 19 21 23 25 27 29 30 31 33 34 34 34 35 36 37 38 38 39 38 37 36 34 34 36 40 44 47 46 42 38 36 34 34 35 36 36 37 41 42 41 41 40 36 34 34 33 33 33 33 37 38 36 34 29 25 23 26 28 26 25 27 27 25 23 22 21 19 18 16 15 13 11 10 9 8 7 7 6
6 8 9 11 12 14 16 18 21 22 24 26 27 29 30 31 32 33 34 35 35 36 36 37 39 39 38 36 33 33 34 36 37 38 37 35 32 33 34 32 34 37 37 39 41 40 39 39 38 35 34 34 33 34 35 35 37 38 38 37 34 28 23 23 25 24 23 26 29 29 27 25 24 21 20 19 17 15 14 12 10 9 8 8 7
5 7 8 10 12 14 16 18 20 22 23 25 25 27 28 29 30 31 33 34 34 35 36 37 38 39 39 37 35 33 33 33 32 31 32 32 32 34 36 34 34 37 37 37 38 37 38 38 37 36 35 33 32 33 36 37 36 36 38 39 37 33 26 22 23 23 22 23 27 30 30 28 26 24 22 20 19 17 16 14 12 11 9 8 8
5 6 8 10 12 14 16 18 19 21 22 23 23 24 25 26 28 30 31 32 33 34 36 37 37 38 39 37 36 35 34 34 33 33 33 35 35 35 35 35 34 35 35 37 38 37 37 38 37 36 35 33 32 34 37 37 35 36 38 39 40 38 33 26 26 26 25 23 22 24 26 27 24 22 21 21 20 18 17 15 13 12 11 9 8
4 6 8 9 12 14 15 17 19 19 20 21 21 22 23 24 26 27 29 30 31 33 35 36 36 37 38 37 36 36 36 36 36 36 36 37 37 36 36 36 36 35 37 39 38 36 36 37 37 37 37 36 33 34 37 37 36 37 38 40 41 40 37 33 29 29 29 27 23 20 21 23 21 19 20 20 20 19 18 17 15 13 11 10 9
Wind_Direction
155 150 148 145 143 139 132 130 124 120 116 112 104 98 91 79 71 63 64 72 73 65 65 70 73 74 73 73 72 74 75 75 76 78 81 86 92 92 91 90 90 91 81 77 83 86 89 90 88 86 85 84 82 82 82 83 85 84 85 86 88 90 92 92 93 97 104 111 106 98 94 89 89 88 84 82 80 79 79 77 77 76 74 75 76
152 151 151 147 148 143 136 133 128 125 120 117 106 99 91 80 71 65 70 77 73 69 74 77 76 75 73 71 70 70 71 75 76 79 83 86 87 87 90 93 97 99 86 84 91 94 95 92 89 86 83 82 82 81 80 81 83 80 79 81 83 85 85 84 86 94 103 109 107 102 97 90 88 86 82 83 84 86 85 80 78 79 79 79 78
151 152 152 149 151 148 142 138 134 130 126 120 108 102 92 81 69 67 74 78 75 74 79 80 78 76 75 71 69 68 68 74 79 85 85 84 87 90 91 88 91 92 88 91 98 99 97 93 90 89 86 86 86 85 82 80 80 79 78 79 83 84 83 81 83 88 96 102 103 101 96 89 85 84 85 86 87 91 93 91 87 82 81 81 77
156 152 154 151 152 152 146 141 136 133 129 122 111 104 91 80 70 69 76 79 77 78 80 79 80 78 76 73 69 68 68 71 79 91 89 87 92 94 91 84 77 84 94 100 101 100 97 92 91 93 93 92 89 87 84 82 82 84 85 84 85 86 84 83 83 85 87 90 91 91 86 81 78 79 81 84 87 90 94 98 95 84 80 81 76
157 153 154 152 155 155 150 142 137 134 129 125 117 109 97 87 79 77 82 83 80 79 80 80 80 79 78 75 71 69 68 69 80 94 94 93 97 96 95 93 85 90 102 106 103 100 97 95 96 98 97 94 90 88 86 85 83 83 84 87 88 88 87 85 84 84 83 81 80 80 79 77 76 75 76 78 81 83 83 85 87 82 76 74 71
158 156 155 154 158 158 154 146 139 135 131 129 120 114 108 99 92 91 92 90 86 81 81 82 80 78 78 76 73 70 69 71 78 97 102 100 102 103 102 103 100 102 108 107 103 101 100 100 101 101 98 95 91 87 85 84 82 79 79 84 88 89 88 87 85 83 82 80 78 77 77 77 76 74 74 75 75 75 74 73 74 76 74 72 71
163 160 158 157 161 161 159 151 144 139 136 133 124 120 112 104 99 98 100 98 91 85 84 84 80 76 75 74 73 70 69 73 76 97 110 109 109 110 111 114 108 106 108 106 102 100 101 102 101 100 97 92 86 82 82 84 83 82 83 86 88 89 88 88 88 87 86 83 80 78 77 76 76 76 76 77 75 73 73 71 70 71 72 72 73
166 165 162 161 163 164 161 156 150 144 140 135 129 126 117 108 106 106 105 105 98 91 89 87 82 75 73 72 72 70 70 76 78 94 112 118 120 118 121 124 113 108 108 104 101 101 102 101 98 96 93 90 86 84 85 88 87 87 89 91 91 91 90 91 91 90 88 86 83 80 79 77 75 75 77 81 83 81 80 78 75 73 73 74 76
169 168 164 166 167 165 164 161 154 148 141 136 132 125 122 117 115 117 114 112 107 99 94 91 85 78 73 72 72 72 72 77 82 87 100 117 129 130 130 129 120 113 108 104 101 101 101 99 97 94 93 92 91 89 91 93 93 94 95 95 95 95 94 94 92 91 90 89 88 85 83 82 80 79 78 80 83 85 84 83 81 79 78 78 78
170 170 167 170 169 167 167 165 158 153 145 139 136 128 126 122 121 122 120 116 112 106 99 92 86 81 74 71 72 73 76 80 85 86 88 104 123 131 130 126 120 114 108 104 102 101 101 100 100 98 98 99 97 94 95 99 98 100 101 100 99 98 98 96 95 93 92 92 91 89 87 87 86 84 83 81 81 83 83 83 83 82 82 81 81
170 170 170 172 173 172 171 171 164 157 151 147 142 136 132 126 125 124 121 117 115 112 104 96 88 84 79 73 72 75 80 84 88 90 91 98 108 116 119 119 116 113 109 106 105 105 104 104 105 105 105 105 105 102 99 100 102 105 106 104 102 100 99 98 97 95 94 93 92 91 90 90 90 89 87 83 82 83 84 85 85 86 85 84 83
171 172 173 176 178 177 175 178 171 164 159 154 150 145 139 131 131 131 125 121 122 117 111 105 94 90 88 81 76 79 85 90 93 94 98 103 107 111 114 116 115 113 111 110 110 109 109 110 109 108 108 107 106 106 103 102 105 109 110 107 105 103 101 100 99 98 96 95 94 95 94 93 93 93 89 87 87 87 88 89 87 87 86 86 86
173 175 176 177 179 182 181 182 179 172 167 162 159 154 148 141 138 140 132 127 130 125 121 115 105 98 97 92 82 83 90 95 98 98 101 106 109 111 113 115 115 113 112 112 111 111 111 111 110 109 108 106 104 104 107 107 109 111 112 109 109 108 106 104 103 100 98 96 96 96 96 95 95 92 91 92 93 92 92 90 87 86 87 87 85
173 177 178 178 179 185 185 186 186 180 175 172 169 165 161 152 148 149 141 133 135 134 130 123 117 107 105 101 89 88 94 101 103 104 105 108 111 114 116 117 116 113 112 111 111 110 110 110 109 109 107 105 102 101 106 110 111 112 113 113 113 114 113 110 106 102 99 97 96 96 96 94 92 91 92 95 95 94 93 91 89 88 88 88 86
179 180 181 181 184 188 188 189 190 187 184 180 179 177 173 164 159 158 148 138 138 142 139 131 124 113 109 105 96 93 99 106 109 110 109 112 116 117 118 117 116 114 112 111 110 110 110 110 109 109 107 103 101 100 103 109 114 116 118 118 118 119 117 113 108 104 99 97 97 97 96 93 93 94 93 93 92 91 90 89 89 88 89 89 90
188 190 188 186 189 191 191 190 192 192 189 188 188 185 183 176 170 163 155 148 146 150 145 137 130 117 112 106 102 100 104 112 116 117 114 115 119 119 119 117 116 115 112 111 110 110 109 109 107 107 104 101 101 101 100 102 110 118 123 122 122 122 119 116 110 106 102 97 96 94 94 93 93 95 92 89 89 89 89 87 86 87 92 94 97
194 201 197 194 194 194 194 192 194 194 193 193 193 192 190 184 178 170 164 159 153 155 153 145 139 126 115 106 108 112 114 119 123 125 120 118 120 120 119 116 115 113 112 111 109 109 107 106 103 102 99 100 102 101 100 99 104 114 125 128 126 124 121 120 114 111 108 101 97 93 92 91 90 90 88 86 87 88 87 84 82 83 93 98 101
198 205 201 202 199 197 197 197 198 198 199 196 195 196 195 190 185 179 173 169 163 163 163 156 149 138 122 109 111 123 124 126 132 134 130 125 123 122 120 117 115 113 112 111 110 111 108 103 100 98 97 101 104 103 103 101 102 109 122 130 131 127 121 120 118 117 116 110 103 93 88 90 90 88 89 89 88 89 88 90 89 81 84 92 92
203 206 204 206 205 202 200 199 202 202 203 201 198 198 198 197 191 188 183 179 175 173 174 169 161 149 131 117 114 129 134 133 139 143 141 136 132 129 126 122 118 115 116 114 115 115 109 103 99 97 95 101 107 107 105 102 102 108 118 126 129 126 122 118 114 114 114 113 108 100 97 97 95 97 102 99 95 95 95 100 97 77 73 82 82
207 209 208 208 208 207 204 202 203 204 206 205 203 201 201 201 197 196 193 188 185 185 187 182 175 166 145 129 121 132 142 142 145 151 152 149 145 141 137 132 126 122 119 120 122 119 111 104 100 97 97 103 109 109 107 103 103 112 119 123 126 124 120 115 110 107 104 104 106 105 107 107 108 111 107 101 100 102 102 101 90 68 71 79 80
210 211 211 211 211 211 209 207 206 206 208 207 206 205 204 204 202 200 198 197 194 194 196 193 186 182 164 147 137 141 149 153 152 156 159 160 158 154 152 145 138 132 125 127 127 123 115 106 101 99 101 108 113 111 109 106 108 118 124 126 128 124 120 116 112 108 105 105 105 106 107 107 110 110 106 105 110 110 102 94 80 72 77 83 86
211 211 211 212 213 215 212 210 210 209 208 209 209 207 208 208 206 204 203 202 200 202 203 200 194 191 182 165 156 154 158 162 158 159 163 166 168 167 165 161 154 145 136 133 128 122 118 110 103 101 106 115 119 117 115 113 115 125 130 133 131 126 124 121 116 110 107 105 107 110 107 105 106 104 105 112 118 111 88 74 73 75 78 82 88
215 215 214 211 213 216 214 211 212 212 211 211 211 211 211 211 209 208 207 206 206 207 207 207 201 195 197 185 167 164 166 167 163 161 164 169 174 178 178 177 171 158 147 143 134 124 120 116 109 106 112 120 124 123 123 120 122 131 137 140 136 131 130 126 119 112 108 108 109 111 106 103 101 97 103 112 117 103 67 64 70 73 74 76 78
222 221 221 216 215 217 216 214 212 212 213 213 214 214 213 212 212 211 211 210 209 210 210 212 210 201 203 202 183 171 172 172 169 165 166 171 176 184 189 190 184 170 162 159 153 137 126 124 120 118 123 129 133 130 129 127 129 137 143 146 141 137 136 131 124 117 114 112 111 109 104 102 100 100 104 110 113 86 61 67 68 68 74 74 71
229 226 226 224 222 222 220 219 217 215 215 216 216 215 216 214 213 213 214 214 213 214 213 214 215 210 207 211 201 182 178 175 171 169 166 170 178 187 195 196 193 182 175 173 170 159 142 135 132 132 137 143 141 134 133 134 135 141 147 149 146 143 142 137 130 124 120 117 113 109 106 106 110 110 104 92 86 76 68 69 66 69 75 76 74
229 229 229 228 227 227 225 224 224 220 218 218 218 218 218 217 215 215 216 216 216 216 216 217 218 217 213 215 210 195 187 182 178 179 176 175 181 189 196 196 195 191 186 183 179 175 162 147 143 145 151 154 147 139 136 138 141 144 149 151 150 150 148 143 136 132 128 123 118 115 111 105 101 102 97 85 80 80 77 72 69 72 75 76 77
229 232 232 230 229 230 228 227 227 226 223 220 220 220 220 221 220 218 218 218 218 217 217 219 220 221 220 220 216 204 197 192 187 187 188 191 195 197 198 196 195 195 194 190 185 183 175 160 155 159 164 163 153 145 143 145 148 148 151 154 156 156 154 150 144 140 137 133 127 121 114 105 99 94 91 84 80 84 85 80 76 76 78 79 78
231 234 234 232 231 232 231 230 229 228 227 224 223 224 222 222 222 220 220 219 219 219 218 220 222 224 225 225 221 212 205 199 195 194 193 198 204 203 199 196 197 197 199 196 189 188 183 172 170 175 178 173 160 154 154 155 155 155 157 159 160 161 160 156 151 148 145 142 138 130 122 116 112 102 89 78 75 79 80 78 77 80 82 80 80
233 233 233 234 233 233 232 232 233 231 228 226 226 227 224 222 223 222 221 220 220 221 220 220 222 226 226 226 224 218 209 201 200 202 200 202 203 201 198 194 196 199 203 202 193 191 189 184 182 184 187 181 168 162 165 165 162 161 164 166 165 165 165 162 158 153 150 149 148 144 137 130 121 104 92 87 84 80 77 75 72 78 82 79 80
235 235 234 235 235 235 234 233 235 234 231 227 226 229 227 224 224 224 223 222 222 223 224 222 221 226 227 227 226 222 217 210 204 206 209 211 207 202 200 193 195 202 206 206 199 193 194 197 192 187 189 187 177 172 177 177 170 167 169 173 171 169 169 167 162 157 154 153 153 154 150 140 126 107 97 94 91 87 85 85 78 76 76 74 78
235 237 236 236 234 234 235 234 234 234 233 231 228 229 231 228 227 226 225 227 225 222 223 223 221 224 228 228 226 224 225 222 213 213 214 215 214 210 208 202 200 206 207 207 204 198 198 203 201 193 195 193 185 181 183 185 179 173 175 178 176 173 171 169 166 160 158 156 152 154 157 152 139 120 112 106 100 96 92 91 88 83 77 73 76
238 241 241 240 238 235 235 233 232 233 233 234 232 232 233 232 231 228 227 229 228 224 221 221 221 223 228 230 229 226 227 227 223 223 222 221 223 216 210 210 210 211 211 210 209 207 204 204 204 198 197 196 192 189 189 192 188 180 181 183 180 177 175 173 171 168 166 165 165 168 180 195 187 150 132 123 115 110 100 93 92 89 87 83 80
247 247 244 242 243 241 238 235 232 232 234 236 236 236 236 236 235 232 230 229 229 229 224 220 220 222 226 228 230 228 227 228 227 229 230 231 233 224 212 210 212 212 216 215 213 215 213 209 209 204 199 198 196 195 194 196 195 188 186 187 185 182 181 180 179 179 179 182 191 200 203 195 176 160 138 131 130 129 115 102 100 96 93 90 87
250 247 245 244 245 243 242 239 235 235 236 237 238 238 238 237 237 236 234 231 230 231 227 221 219 222 225 227 228 226 225 228 228 229 231 232 236 235 222 213 214 214 218 223 220 219 219 214 212 209 203 200 198 199 199 199 199 194 190 190 190 187 187 188 188 191 196 203 211 210 200 185 169 156 140 136 135 140 134 120 115 108 102 97 92
249 247 248 247 245 244 244 242 240 239 238 238 239 239 240 239 239 238 236 235 234 233 230 222 219 220 221 223 227 226 225 229 230 229 230 231 234 238 235 227 224 221 219 224 225 222 219 216 216 212 205 201 201 201 201 201 199 196 192 190 191 191 191 193 196 199 204 209 209 201 192 181 171 164 156 140 122 130 137 132 126 118 111 105 102
249 249 250 249 247 245 245 245 244 242 240 240 239 239 239 239 239 239 238 237 236 235 233 227 222 222 223 222 224 225 227 230 230 229 233 234 233 236 240 238 237 232 224 222 223 223 220 216 216 215 210 205 201 201 202 202 200 196 193 190 190 192 191 191 195 198 198 199 197 194 189 181 176 172 159 135 120 119 122 123 125 121 114 112 112
252 252 251 251 250 248 247 248 247 246 244 242 240 239 238 239 240 241 240 237 235 234 233 230 224 223 226 225 224 226 228 230 229 229 232 236 235 236 237 240 247 239 229 227 223 225 225 218 215 214 215 214 205 201 202 201 199 197 193 191 189 189 189 189 191 192 194 194 192 189 186 183 180 171 155 139 138 133 122 122 120 110 103 106 109
254 252 253 253 253 253 252 252 251 249 247 244 241 240 239 239 242 244 244 241 238 234 232 230 227 224 225 227 226 225 227 229 230 231 231 232 236 240 237 239 249 239 229 231 226 225 225 221 219 214 211 216 213 206 204 200 197 197 194 190 190 189 189 190 192 193 193 193 191 189 187 186 179 167 159 157 158 149 143 145 122 96 84 85 85
257 254 253 252 252 252 252 252 252 250 248 244 241 240 239 239 241 243 244 244 242 238 233 231 230 229 229 230 229 226 226 230 236 234 227 225 230 238 239 238 245 236 226 228 226 222 223 220 220 217 209 212 216 213 210 204 195 194 194 191 189 190 191 193 194 195 195 193 192 193 191 187 178 170 174 174 172 167 164 156 119 96 83 75 62
259 257 255 252 251 250 249 249 249 249 247 243 240 239 238 238 239 241 243 244 243 241 239 236 233 232 233 233 230 227 229 233 237 233 226 226 228 233 239 237 239 234 229 233 231 224 224 222 219 218 212 206 207 211 213 209 199 193 192 192 190 190 193 196 197 198 197 195 194 197 194 188 181 183 190 188 185 181 171 158 132 117 97 70 43
257 256 255 254 254 251 249 248 247 247 245 243 241 240 239 239 240 244 246 246 244 242 241 240 238 235 235 234 229 227 229 229 228 227 226 228 228 230 238 239 235 230 231 239 239 228 225 224 218 216 216 211 205 204 209 212 205 195 191 190 191 191 193 196 199 201 200 199 198 199 197 192 191 195 200 198 194 188 177 170 159 163 142 30 8
260 259 259 258 257 255 252 249 247 246 246 246 244 243 243 244 246 251 254 252 248 246 244 243 241 238 237 235 230 226 226 226 224 226 228 229 231 236 239 242 237 227 227 236 236 229 226 225 220 216 216 217 214 207 205 208 209 206 200 193 190 190 193 197 200 202 203 203 203 203 199 197 200 205 207 206 202 194 187 185 181 187 212 298 324
264 262 262 260 258 257 255 251 247 246 247 247 246 246 245 245 248 251 254 254 252 249 247 245 243 241 240 236 231 226 225 227 229 230 231 230 237 239 235 240 237 226 228 234 230 227 227 226 222 219 214 211 213 211 207 208 211 209 202 196 193 191 192 197 200 203 205 206 207 206 204 203 207 211 212 212 209 204 197 195 197 205 230 265 290
263 263 262 262 262 261 259 256 252 250 250 249 249 248 246 245 246 248 250 251 251 250 248 246 244 243 241 237 233 229 225 226 228 230 232 234 239 238 234 239 235 229 234 233 226 226 228 226 222 220 217 211 210 210 208 211 215 213 202 193 192 193 196 199 200 202 205 207 209 209 207 208 212 215 216 216 215 212 208 204 208 217 235 253 269
266 268 269 270 271 270 267 263 259 256 254 253 251 249 247 245 245 245 245 245 245 246 245 245 244 243 241 237 234 232 228 227 228 231 235 237 237 235 236 238 234 234 237 232 229 230 229 226 221 219 219 218 218 213 209 210 216 221 216 205 195 198 205 205 201 204 207 208 210 210 210 212 215 217 218 219 219 217 215 213 216 223 233 247 259
272 277 277 276 275 273 270 266 263 261 258 257 255 253 251 248 247 246 246 245 244 244 244 244 245 245 244 241 237 234 231 228 228 231 235 237 237 238 241 240 237 238 238 235 234 231 229 226 222 219 219 222 225 220 214 212 211 215 220 221 218 217 216 207 201 203 207 210 212 211 212 214 217 218 218 220 221 219 219 218 221 225 234 244 256
284 281 277 275 274 273 271 268 266 264 262 261 259 257 255 253 252 251 251 251 250 250 250 248 248 248 248 248 242 234 230 228 228 231 234 237 238 238 238 238 236 237 238 240 236 230 230 228 222 220 222 222 225 226 223 217 210 211 214 219 225 229 226 217 210 206 206 210 213 213 213 215 217 218 218 221 223 221 221 222 225 227 232 240 250
282 277 275 276 276 274 273 270 268 266 264 263 262 261 261 260 259 258 257 257 256 256 255 253 252 251 249 249 244 235 229 228 229 230 231 231 232 232 232 232 234 236 237 239 235 229 229 227 221 220 223 223 225 231 231 222 217 216 214 214 219 224 227 228 224 221 217 214 213 213 213 215 217 219 218 220 222 222 223 222 225 229 231 236 244
277 273 274 274 273 271 270 268 267 267 266 266 265 265 264 264 264 263 262 261 260 257 255 254 253 252 250 248 243 237 230 229 231 229 226 226 226 228 230 232 235 236 236 235 232 229 227 224 221 220 221 225 230 234 234 228 226 225 219 216 217 218 222 225 220 220 224 220 216 216 215 214 215 218 218 219 220 220 222 223 224 228 230 234 241
280 275 274 272 272 273 272 273 272 271 271 269 269 268 268 267 267 266 266 265 263 260 258 256 253 251 250 246 242 237 231 228 229 226 225 225 223 224 228 232 234 235 233 231 228 228 227 223 223 224 225 229 232 236 235 232 231 230 226 222 219 215 216 217 212 210 216 218 219 222 221 219 219 220 218 219 220 220 221 223 224 227 229 233 239
287 289 288 285 284 284 284 284 282 279 277 274 272 271 270 270 269 269 269 268 267 265 263 260 256 251 248 245 241 237 231 228 228 226 224 223 223 225 230 232 233 234 233 229 224 224 226 225 226 227 229 231 234 237 236 232 231 232 230 228 225 221 219 219 218 215 215 215 216 219 219 220 222 222 221 221 221 220 220 221 223 225 227 229 235